Location: Cheyres
(46.8153°N, 6.7877°E)
Time: 23:33:35
(UTC+00:00)

USA 307 - Pass Details

Date: 11 May 2021
Orbit: 566 x 577 km, 54.0° (Epoch: 10 May)

Event Time Altitude Azimuth Distance (km) Brightness Sun altitude
Rises 21:07:43 0° 301° (WNW) 2,778 7.6 -17.7°
Reaches altitude 10° 21:09:58 10° 301° (WNW) 1,879 6.5 -17.9°
Maximum altitude 21:14:15 84° 215° (SW) 581 2.8 -18.3°
Enters shadow 21:15:37 43° 130° (SE) 816 3.2 -18.4°
